Theta_e
315 315 314 313 312 310 310 314 308 323 320 305 306 303 307 307 313 317 314 314 312 311 313 311 310 309 312 316 315 310 314 311 307 311 318 320 319 316 318 314 309 310 310 309
315 315 314 312 311 311 310 311 313 322 318 301 303 307 307 310 311 312 312 311 313 314 312 310 313 313 316 316 315 312 313 309 304 306 311 315 313 315 316 316 314 311 307 309
315 314 314 312 312 312 310 312 309 313 314 311 306 306 306 306 311 312 314 313 314 312 311 314 313 313 316 317 315 329 318 309 307 303 307 312 311 314 315 313 309 311 309 312
314 314 314 314 313 312 310 310 310 316 306 307 307 308 309 306 306 312 315 312 312 311 309 311 312 314 315 315 314 314 312 307 309 309 310 310 312 313 313 311 312 309 308 310
314 314 315 314 313 311 311 311 311 315 314 313 307 304 308 308 308 311 310 310 312 313 310 312 311 314 314 312 314 312 313 306 309 307 310 310 309 311 311 312 312 311 312 312
313 314 314 314 314 310 315 318 317 313 308 311 309 307 307 308 311 312 314 313 312 312 313 317 319 320 319 317 314 311 311 308 306 303 309 308 305 309 310 311 312 312 308 313
313 314 315 315 315 312 311 315 314 309 305 308 310 311 310 309 311 310 313 315 313 316 321 320 319 319 319 318 316 316 311 310 310 305 308 300 310 316 315 312 316 319 319 321
313 314 315 316 316 314 310 315 314 310 306 309 309 311 312 312 313 311 314 315 318 321 318 312 309 311 312 314 316 315 316 313 307 304 305 309 312 315 315 313 315 321 321 324
314 315 315 316 315 314 311 316 319 313 308 309 312 312 314 310 310 311 314 319 321 318 314 310 305 303 308 307 310 317 316 315 311 309 304 301 311 317 321 318 310 321 323 326
314 315 315 314 314 314 312 313 319 314 308 312 312 311 310 316 314 312 314 314 314 317 311 307 305 305 311 306 307 309 309 311 307 308 306 309 316 318 321 307 311 322 323 325
314 314 315 314 314 313 312 315 320 314 310 312 314 315 313 314 314 311 315 313 313 311 307 307 308 307 309 309 312 312 310 307 306 308 306 302 319 319 314 320 322 322 323 323
313 314 314 314 313 313 313 313 318 319 312 311 317 316 317 316 315 312 315 314 315 316 310 311 311 309 312 312 306 316 306 312 310 313 310 317 318 317 320 320 318 318 319 320
313 314 314 314 314 313 312 313 317 315 310 309 310 311 315 319 318 319 311 316 318 317 320 317 315 313 313 308 308 312 316 317 314 314 315 315 317 318 318 320 319 320 320 319
313 313 314 314 313 314 312 313 316 314 312 305 307 317 313 319 319 317 318 318 319 319 319 315 314 312 316 310 313 310 313 316 315 314 315 318 318 318 317 318 319 319 319 319
313 313 314 313 313 314 313 316 316 318 312 308 309 313 315 317 316 315 317 316 316 316 314 314 311 314 313 313 312 308 313 312 310 308 314 315 316 317 318 317 317 318 318 317
313 313 313 314 314 314 314 312 317 319 318 311 304 313 312 315 315 313 314 315 315 314 313 313 313 314 311 308 306 312 314 315 315 312 316 315 316 317 317 316 317 317 317 318
313 313 314 314 313 313 310 308 313 313 321 311 304 305 312 314 314 313 312 315 313 313 312 311 311 310 310 310 304 311 313 314 315 316 315 313 314 313 317 317 317 318 318 319
313 313 314 313 312 311 312 317 314 315 315 314 305 303 306 315 309 308 313 309 312 312 310 311 308 309 312 305 310 313 314 315 316 316 316 315 316 317 317 318 318 317 317 318
313 313 312 314 313 314 311 315 315 319 313 304 307 303 299 314 309 311 311 311 305 312 307 308 312 309 303 307 310 312 313 313 313 315 316 316 315 315 316 317 316 316 316 318
312 311 313 309 311 312 318 316 312 312 310 308 302 308 302 310 308 307 309 309 306 301 306 313 307 304 311 314 315 314 315 315 315 311 310 312 312 312 314 314 316 316 317 317
314 310 309 315 315 316 313 303 303 307 303 308 307 308 305 313 306 307 311 307 307 299 303 305 303 300 309 314 315 317 316 316 316 316 316 316 315 313 314 315 316 316 316 316
310 309 315 317 311 307 301 301 305 302 299 306 306 306 308 311 313 308 309 305 307 298 310 303 299 305 311 314 315 315 316 315 314 316 314 316 315 315 315 315 314 314 315 317
319 313 308 307 306 296 296 293 298 299 305 307 308 304 308 311 313 308 308 301 300 311 304 300 303 309 314 317 317 317 317 316 316 315 316 316 315 316 314 314 313 312 311 312
310 305 293 299 297 298 298 298 301 304 305 306 304 305 306 310 307 306 302 306 307 300 297 298 308 313 315 318 318 317 314 316 315 316 315 314 314 313 314 312 311 309 308 309
306 304 292 295 299 301 303 305 306 307 308 306 308 309 309 305 303 305 304 301 298 300 300 307 314 317 318 318 318 317 317 317 316 316 315 314 314 312 313 313 311 309 309 309
306 302 298 300 299 299 301 303 304 309 308 311 309 304 304 303 303 300 299 297 296 303 308 311 315 318 318 319 320 319 319 319 318 317 316 316 314 312 311 312 311 310 309 309
301 299 303 301 300 299 301 304 305 310 309 303 305 300 299 306 299 297 304 302 306 310 312 315 319 319 320 322 322 321 320 318 319 319 318 317 315 314 312 310 312 311 309 309
Wind_Speed
16 14 16 16 19 26 7 8 9 10 10 9 10 15 23 19 24 10 11 16 18 17 14 16 20 19 19 18 21 24 23 19 16 16 16 13 18 18 22 15 8 7 10 6
15 14 15 15 15 12 9 7 7 8 10 9 13 17 22 24 24 22 8 16 15 17 11 15 15 18 19 14 16 19 19 18 17 15 15 16 13 16 19 17 17 16 8 7
15 14 15 14 14 9 7 7 5 6 9 13 19 17 19 21 24 25 15 15 17 14 13 16 14 11 16 14 12 7 16 19 17 14 16 15 19 17 17 19 14 13 7 4
15 15 15 15 14 10 6 7 9 7 9 14 18 19 21 19 21 23 15 15 15 8 14 16 16 11 14 10 8 5 14 17 20 21 22 19 14 16 16 16 19 18 22 32
14 14 14 15 16 19 6 7 7 12 14 13 20 18 20 19 18 20 17 19 12 13 16 16 14 11 12 14 11 12 16 14 16 20 18 19 15 11 8 15 13 14 16 16
14 14 15 15 15 15 7 8 11 8 10 13 13 14 19 18 16 17 18 19 15 17 20 13 12 11 16 16 14 16 16 14 16 15 16 15 16 13 14 15 11 10 11 12
14 15 14 14 12 10 8 10 8 7 9 13 12 18 14 19 16 17 15 18 20 18 7 11 12 11 14 7 18 13 19 18 13 15 15 15 13 21 20 18 15 18 17 19
15 15 15 12 10 9 9 10 7 8 10 14 16 14 13 14 11 10 12 8 7 5 9 8 11 11 10 6 6 19 18 14 13 12 12 11 19 22 17 11 19 16 15 16
13 14 14 11 10 11 8 8 3 6 9 4 14 14 11 11 9 7 9 4 10 5 8 9 12 13 9 8 8 13 12 4 7 5 7 9 8 12 16 6 11 15 13 14
13 13 9 10 12 11 8 8 9 6 9 13 9 9 11 13 12 7 13 10 5 10 10 11 12 13 16 15 15 11 9 10 8 11 6 8 5 14 16 5 7 12 15 15
12 11 10 10 12 13 8 7 3 6 8 9 10 10 9 13 12 8 16 10 9 10 13 12 11 11 13 13 6 17 11 10 9 10 12 8 15 3 7 8 11 12 13 14
11 11 11 12 13 13 10 6 6 4 7 11 13 7 7 5 7 10 12 9 2 6 7 10 10 11 1 7 4 6 6 9 5 9 9 12 17 16 15 15 11 12 12 13
11 12 12 13 13 12 8 8 8 7 8 10 12 9 1 7 6 6 7 6 10 5 5 6 5 9 6 2 9 3 15 4 11 11 13 14 14 14 13 11 11 12 13 12
12 12 12 12 13 13 10 7 9 6 7 6 5 6 3 7 5 7 10 7 6 7 6 4 3 5 6 10 7 13 11 11 10 18 16 5 14 11 9 11 12 11 12 13
13 12 12 12 13 14 10 8 10 3 4 4 4 14 10 5 4 5 6 4 6 4 1 2 5 7 5 6 4 14 15 15 13 10 11 9 10 11 11 10 12 13 13 13
13 12 11 11 11 9 7 3 6 7 5 3 3 6 5 6 3 3 5 6 4 4 4 6 6 8 6 2 11 16 15 15 14 9 11 11 13 13 16 15 14 14 15 14
13 11 11 10 10 7 4 5 5 5 2 4 3 2 3 2 3 5 5 6 4 2 4 5 5 2 4 13 12 14 14 11 11 14 12 11 13 13 15 15 16 16 17 16
13 11 11 11 12 11 6 5 4 1 2 5 5 3 7 4 6 4 4 4 4 7 5 1 6 4 7 8 16 16 16 16 15 15 15 16 17 17 19 19 20 20 18 16
11 10 10 5 5 2 3 2 5 4 2 2 4 1 4 1 6 5 4 5 6 3 4 4 5 8 8 6 9 11 11 10 13 15 15 16 17 17 18 19 19 19 19 20
9 5 3 3 4 2 7 1 2 7 5 3 3 4 4 6 5 5 4 6 4 9 6 2 7 10 8 10 12 11 9 12 13 12 13 14 15 15 15 16 16 17 18 20
5 3 1 6 6 5 2 2 0 4 2 3 4 7 2 5 5 3 4 2 4 4 3 2 4 3 7 7 7 5 6 6 8 8 11 13 14 15 16 18 18 17 17 16
5 4 6 1 2 2 1 2 1 3 4 2 3 5 5 3 4 1 3 5 3 3 5 4 4 4 3 5 6 5 6 8 7 10 11 12 12 15 16 18 18 16 17 18
7 5 3 2 2 6 6 7 5 3 1 1 2 3 3 2 1 2 5 3 2 5 4 4 5 4 5 6 6 8 3 3 11 10 11 12 14 15 19 18 18 20 19 19
2 2 6 6 7 7 4 4 4 4 3 6 7 1 2 3 3 3 1 3 2 5 3 3 5 3 4 3 5 8 9 11 8 9 12 14 16 18 18 18 16 15 15 17
6 6 4 4 2 2 5 5 4 5 5 5 2 3 3 2 2 3 4 2 4 6 4 4 4 4 5 6 7 9 10 10 10 8 9 12 15 17 16 16 14 14 14 15
4 6 1 3 2 4 4 6 5 5 6 3 2 3 3 5 4 5 6 3 3 3 4 4 4 6 6 6 7 8 9 8 9 8 9 10 12 14 14 18 15 15 16 17
3 2 1 2 2 2 3 3 4 6 5 4 4 5 7 3 4 2 2 3 4 4 4 6 7 6 6 6 6 6 6 5 6 7 10 10 10 14 14 17 18 17 16 17
Wind_Direction
332 334 332 332 333 330 289 278 257 141 161 193 217 228 237 247 261 212 254 273 285 283 256 223 213 232 215 205 208 213 226 250 257 214 199 216 250 237 192 211 170 184 194 206
329 329 332 331 335 357 314 261 208 154 201 222 224 226 239 244 257 258 212 244 254 281 282 270 249 207 239 213 203 220 205 235 257 250 228 192 220 247 265 231 251 240 225 137
337 335 333 327 327 338 303 272 204 152 212 247 265 240 220 237 242 260 245 242 250 244 267 266 268 222 233 207 183 337 222 223 233 248 242 202 208 221 238 255 260 284 342 295
333 334 331 325 322 321 290 250 254 334 180 221 235 256 261 222 233 234 240 251 254 243 251 239 250 218 224 145 105 246 232 220 232 233 266 274 218 215 220 250 277 284 188 247
329 334 333 328 328 323 241 291 317 351 304 265 204 228 254 263 229 238 207 247 237 247 262 255 247 233 238 169 165 226 215 236 240 249 251 261 264 265 262 216 239 265 280 298
334 336 336 333 336 331 276 2 333 290 288 281 275 215 232 248 267 226 236 213 237 242 240 289 345 341 294 170 198 198 222 216 236 240 235 258 258 250 252 263 256 262 253 265
337 336 332 331 340 349 319 297 320 290 277 261 263 266 242 235 237 251 243 224 213 244 338 304 275 285 285 231 179 191 212 217 219 240 220 231 249 234 223 233 52 26 12 18
334 334 330 326 332 336 304 303 296 292 283 281 290 260 267 243 222 238 273 207 228 15 281 261 238 251 258 236 244 187 206 209 213 226 233 230 22 24 10 133 57 30 24 21
329 330 335 333 336 336 307 290 9 275 291 358 347 321 291 276 214 219 248 50 354 293 265 230 225 225 219 216 237 265 285 213 268 250 248 281 111 354 340 311 79 22 24 23
333 334 335 336 335 337 317 295 281 281 278 274 338 347 340 327 333 275 206 243 224 243 249 228 218 226 226 207 217 214 253 276 265 199 276 67 14 339 315 295 56 28 30 25
342 346 344 336 334 340 329 305 288 295 300 314 335 356 347 340 359 339 324 176 229 201 228 239 228 236 218 227 212 204 199 238 250 279 237 105 327 2 48 95 65 41 30 30
338 338 336 333 331 334 335 283 330 269 266 312 298 304 292 291 308 312 318 293 211 16 220 236 246 247 195 261 107 232 57 7 74 32 95 81 59 66 48 62 59 33 24 17
331 327 326 325 322 325 325 305 314 266 253 249 250 213 208 291 269 291 297 342 355 26 334 301 339 62 345 226 77 355 113 273 120 119 111 95 75 56 39 50 40 21 14 7
323 323 322 321 316 313 315 292 301 291 312 288 105 129 199 294 29 307 306 308 272 281 296 321 343 67 15 44 79 55 39 32 59 92 34 62 64 39 22 33 16 4 360 358
324 319 319 317 311 319 303 285 280 358 339 308 295 306 189 121 24 330 301 321 314 300 195 312 36 48 12 63 12 50 41 28 32 64 36 12 12 343 20 7 352 345 346 339
324 317 311 308 308 325 286 317 75 17 331 314 3 298 48 88 97 97 45 11 350 311 325 67 61 20 340 53 85 65 62 37 22 20 22 349 337 346 356 346 335 333 331 319
322 312 304 306 310 290 287 357 12 5 4 34 272 269 109 298 115 96 84 49 360 298 51 39 84 71 305 59 62 39 43 33 13 19 2 346 347 338 335 325 327 325 319 315
318 307 303 301 299 277 260 167 202 353 132 231 257 182 155 254 163 116 114 105 48 5 62 178 88 167 47 56 23 26 27 13 12 359 345 338 335 333 335 333 329 324 318 315
315 300 302 274 213 237 60 250 189 231 145 14 324 48 124 290 96 109 97 92 96 299 77 73 332 61 56 22 14 19 10 0 352 347 343 347 338 333 332 329 322 318 316 315
302 263 226 242 46 333 276 198 269 193 154 62 284 256 129 333 192 120 140 137 149 114 80 100 87 87 53 34 36 27 4 3 356 347 350 343 337 335 327 324 327 327 321 313
215 210 281 95 75 26 88 235 297 284 79 47 334 12 43 5 21 42 357 146 98 114 151 112 92 59 59 28 19 354 353 5 347 357 346 355 337 332 332 325 320 312 309 307
338 306 260 339 90 184 241 247 178 18 61 60 20 39 354 50 308 356 335 90 101 117 108 119 85 107 59 351 3 2 312 325 337 359 357 348 335 335 331 327 325 323 322 318
240 224 309 33 291 33 29 25 17 55 30 78 37 92 358 301 317 29 13 77 94 71 38 81 71 104 26 9 343 308 282 6 43 345 353 1 346 355 347 342 342 334 323 313
242 10 26 0 23 27 12 357 5 23 329 33 335 99 6 36 9 9 285 45 132 109 72 99 103 52 5 3 353 308 359 21 13 337 2 8 2 354 355 357 343 326 321 316
19 35 40 30 322 299 330 324 20 22 10 312 352 9 49 23 40 9 348 60 58 43 81 118 103 35 24 6 343 349 357 3 345 357 353 8 4 4 351 356 342 331 321 318
47 42 8 337 291 8 3 6 6 9 320 289 352 16 35 47 27 34 20 46 50 75 42 22 3 22 350 333 332 348 351 357 346 335 345 2 2 4 6 356 355 344 339 332
45 9 345 319 303 325 335 334 348 328 298 34 2 50 28 7 61 76 357 46 60 22 7 0 3 327 325 326 330 342 314 5 1 5 359 0 3 356 3 2 357 351 348 345